This is the latest recevied weather packets stored in our database for station/object K7FLA. If no packets are shown the sender has not sent any weather packets the latest 1 day(s).
| Time | Temp. | Humidity | Pressure | Rain* | Wind** | Luminosity | Snow |
|---|---|---|---|---|---|---|---|
| 1777993144 | 10.56° C | 89% | 1093.5 hPa | 0 mm | 0.89 m/s, 203° | 131 W/m² | - |
| 1777992842 | 10.56° C | 90% | 1093.4 hPa | 0 mm | 1.34 m/s, 211° | 103 W/m² | - |
| 1777992540 | 10.56° C | 90% | 1093.3 hPa | 0 mm | 1.79 m/s, 231° | 114 W/m² | - |
| 1777992238 | 10.56° C | 91% | 1093.2 hPa | 1.78 mm | 0.45 m/s, 234° | 112 W/m² | - |
| 1777991935 | 10.56° C | 91% | 1093.6 hPa | 1.78 mm | 1.34 m/s, 231° | 126 W/m² | - |
| 1777991633 | 10.56° C | 91% | 1093.2 hPa | 0 mm | 0.89 m/s, 248° | 43 W/m² | - |
| 1777991330 | 10.56° C | 91% | 1093.3 hPa | 0 mm | 0.45 m/s, 185° | 37 W/m² | - |
| 1777991027 | 10.56° C | 91% | 1093.1 hPa | 0 mm | 0.45 m/s, 189° | 78 W/m² | - |
| 1777990724 | 10.56° C | 91% | 1093.1 hPa | 0 mm | 0.45 m/s, 179° | 94 W/m² | - |
| 1777990421 | 10.56° C | 92% | 1093.1 hPa | 0 mm | 0.45 m/s, 156° | 89 W/m² | - |
| 1777990118 | 10.56° C | 92% | 1093.1 hPa | 0 mm | 0 m/s | 137 W/m² | - |
| 1777989814 | 10° C | 92% | 1093.2 hPa | 0 mm | 0.45 m/s, 218° | 67 W/m² | - |
| 1777989512 | 10° C | 92% | 1093.2 hPa | 0 mm | 0.45 m/s, 216° | 71 W/m² | - |
| 1777989207 | 10° C | 92% | 1093.1 hPa | 0 mm | 0.45 m/s, 210° | 66 W/m² | - |
| 1777988904 | 10° C | 92% | 1093.1 hPa | 0 mm | 0.45 m/s, 218° | 54 W/m² | - |
| 1777988601 | 10° C | 92% | 1093 hPa | 0 mm | 0.89 m/s, 192° | 46 W/m² | - |
| 1777988297 | 10° C | 91% | 1092.8 hPa | 0 mm | 0.89 m/s, 231° | 38 W/m² | - |
| 1777987994 | 10° C | 92% | 1092.7 hPa | 0 mm | 0.45 m/s, 223° | 29 W/m² | - |
| 1777987690 | 10° C | 91% | 1092.8 hPa | 0 mm | 0.89 m/s, 228° | 17 W/m² | - |
| 1777987387 | 9.44° C | 91% | 1092.6 hPa | 0 mm | 0.45 m/s, 232° | 15 W/m² | - |
| 1777987084 | 9.44° C | 92% | 1092.7 hPa | 0 mm | 0.45 m/s, 236° | 14 W/m² | - |
| 1777986781 | 9.44° C | 92% | 1092.8 hPa | 0 mm | 1.34 m/s, 244° | 9 W/m² | - |
| 1777986479 | 9.44° C | 92% | 1092.7 hPa | 1.27 mm | 0.45 m/s, 233° | 7 W/m² | - |
| 1777986185 | 9.44° C | 92% | 1092.7 hPa | 1.27 mm | 0.89 m/s, 209° | 5 W/m² | - |
| 1777985874 | 10° C | 92% | 1092.7 hPa | 3.05 mm | 0.89 m/s, 220° | 2 W/m² | - |
* Rain latest hour (hover to see other rain measurements)
** Current wind speed in m/s (hover to see current wind gust speed)